Weather History for Algona, IA

Change the Weather History Date:

Saturday, September 22, 2012

  Actual Average Record
Temperature  
Mean Temperature 47 °F -  
Max Temperature 59 °F 69 °F 84 °F (2004)
Min Temperature 35 °F 46 °F 35 °F (2012)
Degree Days  
Heating Degree Days 18    
Moisture  
Dew Point 30 °F    
Average Humidity 52    
Maximum Humidity 70    
Minimum Humidity 31    
Precipitation  
Precipitation 0.00 in - - ()
Sea Level Pressure  
Sea Level Pressure 30.16 in    
Wind  
Wind Speed 12 mph (NNW)    
Max Wind Speed 22 mph    
Max Gust Speed 30 mph    
Visibility 10 miles    
Events      
Averages and records for this station are not official NWS values.
T = Trace of Precipitation, MM = Missing Value Source: NWS Daily Summary

Daily Weather History Graph

Daily Weather History Graph

Search for Another Location

Airport:

Trip Planner

Search our weather history database for the weather conditions in past years. The results will help you decide how hot, cold, wet, or windy it might be!

Date:

Astronomy

Sep. 22, 2012 Rise Set
Actual Time 7:04 AM CDT 7:13 PM CDT
Civil Twilight 6:36 AM CDT 7:41 PM CDT
Nautical Twilight 6:03 AM CDT 8:14 PM CDT
Astronomical Twilight 5:29 AM CDT 8:48 PM CDT
Moon 2:32 PM CDT (9/22) No Moon Set
Length of Visible Light 13h 05m
Length of Day
12h 08m
Waxing Crescent, 49% of the Moon is Illuminated
Sep 22
Waxing Crescent
Sep 22
First Quarter
Sep 29
Full
Oct 8
Last Quarter
Oct 15
New

Hourly Weather History & Observations

Time (CDT) Temp. Windchill Dew Point Humidity Pressure Visibility Wind Dir Wind Speed Gust Speed Precip Events Conditions
12:15 AM 48.2 °F - 37.4 °F 66% 29.90 in 10.0 mi NW 9.2 mph - N/A   Partly Cloudy
12:35 AM 48.2 °F - 35.6 °F 62% 29.91 in 10.0 mi NNW 21.9 mph - N/A   Clear
12:55 AM 51.8 °F - 33.8 °F 50% 29.93 in 10.0 mi NNW 21.9 mph 29.9 mph N/A   Clear
1:15 AM 50.0 °F - 35.6 °F 58% 29.95 in 10.0 mi North 11.5 mph 18.4 mph N/A   Clear
1:35 AM 50.0 °F - 33.8 °F 54% 29.96 in 10.0 mi NNW 16.1 mph 21.9 mph N/A   Unknown
1:55 AM 48.2 °F - 35.6 °F 62% 29.97 in 10.0 mi North 12.7 mph 20.7 mph N/A   Clear
2:15 AM 46.4 °F 41.1 °F 35.6 °F 66% 29.98 in 10.0 mi North 11.5 mph 18.4 mph N/A   Clear
2:35 AM 44.6 °F 39.2 °F 33.8 °F 66% 29.99 in 10.0 mi North 10.4 mph 16.1 mph N/A   Clear
2:55 AM 42.8 °F 38.0 °F 32.0 °F 66% 30.00 in 10.0 mi North 8.1 mph 17.3 mph N/A   Clear
3:15 AM 41.0 °F 34.7 °F 30.2 °F 65% 30.01 in 10.0 mi North 10.4 mph 17.3 mph N/A   Clear
3:35 AM 42.8 °F 37.0 °F 24.8 °F 49% 30.03 in 10.0 mi NNW 10.4 mph 17.3 mph N/A   Clear
3:55 AM 41.0 °F 33.1 °F 23.0 °F 49% 30.04 in 10.0 mi NNW 15.0 mph 23.0 mph N/A   Clear
4:15 AM 41.0 °F 34.7 °F 23.0 °F 49% 30.04 in 10.0 mi NNW 10.4 mph 19.6 mph N/A   Clear
4:35 AM 39.2 °F 32.5 °F 23.0 °F 52% 30.05 in 10.0 mi NNW 10.4 mph 17.3 mph N/A   Clear
4:55 AM 39.2 °F 33.6 °F 23.0 °F 52% 30.06 in 10.0 mi NNW 8.1 mph 15.0 mph N/A   Clear
5:15 AM 37.4 °F 31.4 °F 23.0 °F 56% 30.07 in 10.0 mi NW 8.1 mph - N/A   Clear
5:35 AM 37.4 °F 30.8 °F 23.0 °F 56% 30.08 in 10.0 mi NW 9.2 mph - N/A   Clear
5:55 AM 35.6 °F 28.0 °F 24.8 °F 65% 30.09 in 10.0 mi NW 10.4 mph - N/A   Clear
6:15 AM 35.6 °F 28.0 °F 24.8 °F 65% 30.10 in 10.0 mi NW 10.4 mph - N/A   Clear
6:35 AM 35.6 °F 27.5 °F 24.8 °F 65% 30.11 in 10.0 mi NW 11.5 mph 17.3 mph N/A   Clear
6:55 AM 35.6 °F 28.0 °F 24.8 °F 65% 30.11 in 10.0 mi NW 10.4 mph - N/A   Clear
7:15 AM 35.6 °F 28.0 °F 26.6 °F 70% 30.12 in 10.0 mi NW 10.4 mph - N/A   Clear
7:35 AM 37.4 °F 30.8 °F 26.6 °F 65% 30.13 in 10.0 mi NW 9.2 mph - N/A   Clear
7:55 AM 37.4 °F 28.5 °F 26.6 °F 65% 30.14 in 10.0 mi NW 15.0 mph - N/A   Clear
8:15 AM 37.4 °F 29.8 °F 28.4 °F 70% 30.15 in 10.0 mi NNW 11.5 mph 20.7 mph N/A   Mostly Cloudy
8:35 AM 39.2 °F 31.2 °F 30.2 °F 70% 30.16 in 10.0 mi NNW 13.8 mph 21.9 mph N/A   Overcast
8:55 AM 41.0 °F 33.1 °F 30.2 °F 65% 30.16 in 10.0 mi NNW 15.0 mph 25.3 mph N/A   Overcast
9:15 AM 44.6 °F 37.8 °F 32.0 °F 61% 30.18 in 10.0 mi NNW 15.0 mph 21.9 mph N/A   Overcast
9:55 AM 46.4 °F 40.1 °F 33.8 °F 62% 30.19 in 10.0 mi North 15.0 mph 23.0 mph N/A   Overcast
10:15 AM 46.4 °F 39.2 °F 33.8 °F 62% 30.20 in 10.0 mi North 18.4 mph 26.5 mph N/A   Overcast
10:35 AM 48.2 °F - 33.8 °F 58% 30.20 in 10.0 mi North 15.0 mph 29.9 mph N/A   Overcast
10:55 AM 48.2 °F - 35.6 °F 62% 30.21 in 10.0 mi North 19.6 mph 26.5 mph N/A   Overcast
11:15 AM 50.0 °F - 35.6 °F 58% 30.21 in 10.0 mi North 13.8 mph 25.3 mph N/A   Overcast
11:35 AM 50.0 °F - 35.6 °F 58% 30.22 in 10.0 mi North 15.0 mph 21.9 mph N/A   Overcast
11:55 AM 50.0 °F - 33.8 °F 54% 30.23 in 10.0 mi NNW 12.7 mph 21.9 mph N/A   Mostly Cloudy
12:15 PM 51.8 °F - 35.6 °F 54% 30.23 in 10.0 mi NNW 11.5 mph 18.4 mph N/A   Mostly Cloudy
12:35 PM 51.8 °F - 35.6 °F 54% 30.23 in 10.0 mi NNW 13.8 mph 19.6 mph N/A   Mostly Cloudy
12:55 PM 53.6 °F - 35.6 °F 51% 30.23 in 10.0 mi North 16.1 mph - N/A   Mostly Cloudy
1:15 PM 53.6 °F - 35.6 °F 51% 30.23 in 10.0 mi NNW 15.0 mph - N/A   Mostly Cloudy
1:35 PM 55.4 °F - 33.8 °F 44% 30.23 in 10.0 mi North 13.8 mph - N/A   Scattered Clouds
1:55 PM 55.4 °F - 33.8 °F 44% 30.22 in 10.0 mi NNW 12.7 mph - N/A   Scattered Clouds
2:15 PM 55.4 °F - 33.8 °F 44% 30.22 in 10.0 mi North 10.4 mph 19.6 mph N/A   Partly Cloudy
2:35 PM 55.4 °F - 33.8 °F 44% 30.22 in 10.0 mi North 13.8 mph 20.7 mph N/A   Scattered Clouds
2:55 PM 55.4 °F - 33.8 °F 44% 30.21 in 10.0 mi NNW 18.4 mph - N/A   Scattered Clouds
3:15 PM 57.2 °F - 33.8 °F 41% 30.22 in 10.0 mi NNW 11.5 mph 17.3 mph N/A   Scattered Clouds
3:35 PM 59.0 °F - 32.0 °F 36% 30.21 in 10.0 mi North 15.0 mph 20.7 mph N/A   Mostly Cloudy
3:55 PM 57.2 °F - 32.0 °F 38% 30.21 in 10.0 mi NNW 10.4 mph 19.6 mph N/A   Mostly Cloudy
4:15 PM 57.2 °F - 32.0 °F 38% 30.21 in 10.0 mi North 10.4 mph 19.6 mph N/A   Scattered Clouds
4:35 PM 59.0 °F - 32.0 °F 36% 30.21 in 10.0 mi NNW 11.5 mph 18.4 mph N/A   Scattered Clouds
4:55 PM 57.2 °F - 30.2 °F 36% 30.21 in 10.0 mi NNW 11.5 mph - N/A   Partly Cloudy
5:15 PM 57.2 °F - 30.2 °F 36% 30.21 in 10.0 mi NNW 10.4 mph 20.7 mph N/A   Clear
5:35 PM 57.2 °F - 26.6 °F 31% 30.22 in 10.0 mi North 11.5 mph 18.4 mph N/A   Clear
5:55 PM 57.2 °F - 26.6 °F 31% 30.22 in 10.0 mi NNW 13.8 mph - N/A   Clear
6:15 PM 57.2 °F - 26.6 °F 31% 30.22 in 10.0 mi NNW 10.4 mph 18.4 mph N/A   Clear
6:35 PM 55.4 °F - 26.6 °F 33% 30.22 in 10.0 mi North 9.2 mph 16.1 mph N/A   Clear
6:55 PM 55.4 °F - 26.6 °F 33% 30.22 in 10.0 mi NNW 8.1 mph 15.0 mph N/A   Clear
7:15 PM 53.6 °F - 24.8 °F 33% 30.22 in 10.0 mi NNW 6.9 mph 12.7 mph N/A   Clear
7:35 PM 50.0 °F - 24.8 °F 37% 30.22 in 10.0 mi NW 5.8 mph - N/A   Clear
7:55 PM 50.0 °F - 26.6 °F 40% 30.22 in 10.0 mi NW 5.8 mph - N/A   Clear
8:15 PM 48.2 °F - 26.6 °F 43% 30.23 in 10.0 mi NW 5.8 mph - N/A   Clear
8:35 PM 46.4 °F 42.9 °F 26.6 °F 46% 30.23 in 10.0 mi NW 6.9 mph - N/A   Clear
8:55 PM 46.4 °F 42.9 °F 26.6 °F 46% 30.24 in 10.0 mi NW 6.9 mph - N/A   Clear
9:15 PM 44.6 °F 40.2 °F 26.6 °F 49% 30.24 in 10.0 mi NW 8.1 mph - N/A   Clear
9:35 PM 44.6 °F 41.4 °F 26.6 °F 49% 30.24 in 10.0 mi NW 5.8 mph - N/A   Clear
9:55 PM 42.8 °F 38.6 °F 26.6 °F 53% 30.25 in 10.0 mi NW 6.9 mph - N/A   Clear
10:15 PM 42.8 °F 39.3 °F 26.6 °F 53% 30.26 in - NNW 5.8 mph - N/A   Clear
10:35 PM 41.0 °F 35.8 °F 26.6 °F 57% 30.26 in 10.0 mi NW 8.1 mph - N/A   Clear
10:55 PM 41.0 °F 37.1 °F 26.6 °F 57% 30.27 in 10.0 mi NW 5.8 mph - N/A   Clear
11:15 PM 39.2 °F 35.0 °F 26.6 °F 61% 30.27 in 10.0 mi NW 5.8 mph - N/A   Clear
11:35 PM 39.2 °F 35.0 °F 26.6 °F 61% 30.27 in 10.0 mi NW 5.8 mph - N/A   Clear
11:55 PM 41.0 °F 36.4 °F 26.6 °F 57% 30.27 in 10.0 mi NNW 6.9 mph - N/A   Clear